Time,TemperatureF,DewpointF,PressureIn,WindDirection,WindDirectionDegrees,WindSpeedMPH,WindSpeedGustMPH,Humidity,HourlyPrecipIn,Conditions,Clouds,dailyrainin,SolarRadiationWatts/m^2,SoftwareType,DateUTC
2013-04-30 00:01:00,60.0,32.0,-100.00,SSE,158,8.0,17.0,35,-99.99,,,0.00,0.000000,,2013-04-30 07:01:00,
2013-04-30 01:32:00,58.0,24.0,-100.00,SE,140,10.0,16.0,27,-99.99,,,0.00,0.000000,,2013-04-30 08:32:00,
2013-04-30 01:42:00,58.0,24.0,-100.00,SE,140,10.0,16.0,27,-99.99,,,0.00,0.000000,,2013-04-30 08:42:00,
2013-04-30 01:52:00,58.0,24.0,-100.00,SE,140,10.0,16.0,27,-99.99,,,0.00,0.000000,,2013-04-30 08:52:00,
2013-04-30 02:01:00,58.0,24.0,-100.00,SE,140,10.0,16.0,27,-99.99,,,0.00,0.000000,,2013-04-30 09:01:00,
2013-04-30 02:02:00,58.0,24.0,-100.00,SE,139,8.0,19.0,27,0.00,,,0.00,0.000000,,2013-04-30 09:02:00,
2013-04-30 02:22:00,58.0,24.0,-100.00,SE,139,8.0,19.0,27,0.00,,,0.00,0.000000,,2013-04-30 09:22:00,
2013-04-30 02:33:00,58.0,24.0,-100.00,SE,139,8.0,19.0,27,0.00,,,0.00,0.000000,,2013-04-30 09:33:00,
2013-04-30 02:43:00,58.0,24.0,-100.00,SE,139,8.0,19.0,27,0.00,,,0.00,0.000000,,2013-04-30 09:43:00,
2013-04-30 02:52:00,58.0,24.0,-100.00,SE,139,8.0,19.0,27,0.00,,,0.00,0.000000,,2013-04-30 09:52:00,
2013-04-30 04:21:00,58.0,26.0,-100.00,SSE,155,8.0,15.0,29,-99.99,,,0.00,0.000000,,2013-04-30 11:21:00,
2013-04-30 04:32:00,58.0,26.0,-100.00,SSE,155,8.0,15.0,29,-99.99,,,0.00,0.000000,,2013-04-30 11:32:00,
2013-04-30 04:42:00,58.0,26.0,-100.00,SSE,155,8.0,15.0,29,-99.99,,,0.00,0.000000,,2013-04-30 11:42:00,
2013-04-30 04:51:00,58.0,26.0,-100.00,SSE,155,8.0,15.0,29,-99.99,,,0.00,0.000000,,2013-04-30 11:51:00,
2013-04-30 05:01:00,58.0,26.0,-100.00,SSE,155,8.0,15.0,29,-99.99,,,0.00,0.000000,,2013-04-30 12:01:00,
2013-04-30 09:02:00,66.0,29.0,-100.00,SE,136,8.0,14.0,25,-99.99,,,0.00,510.000000,,2013-04-30 16:02:00,
2013-04-30 09:23:00,66.0,29.0,-100.00,SE,136,8.0,14.0,25,-99.99,,,0.00,510.000000,,2013-04-30 16:23:00,
2013-04-30 09:33:00,66.0,29.0,-100.00,SE,136,8.0,14.0,25,-99.99,,,0.00,510.000000,,2013-04-30 16:33:00,
2013-04-30 09:42:00,66.0,29.0,-100.00,SE,136,8.0,14.0,25,-99.99,,,0.00,510.000000,,2013-04-30 16:42:00,
2013-04-30 09:52:00,66.0,29.0,-100.00,SE,136,8.0,14.0,25,-99.99,,,0.00,510.000000,,2013-04-30 16:52:00,
2013-04-30 11:32:00,71.0,33.0,-100.00,SSE,149,10.0,15.0,25,-99.99,,,0.00,956.000000,,2013-04-30 18:32:00,
2013-04-30 11:42:00,71.0,33.0,-100.00,SSE,149,10.0,15.0,25,-99.99,,,0.00,956.000000,,2013-04-30 18:42:00,
2013-04-30 11:52:00,71.0,33.0,-100.00,SSE,149,10.0,15.0,25,-99.99,,,0.00,956.000000,,2013-04-30 18:52:00,
2013-04-30 12:01:00,71.0,33.0,-100.00,SSE,149,10.0,15.0,25,-99.99,,,0.00,956.000000,,2013-04-30 19:01:00,
2013-04-30 12:22:00,70.0,34.0,-100.00,SE,130,11.0,17.0,27,0.00,,,0.00,1087.000000,,2013-04-30 19:22:00,
2013-04-30 12:32:00,70.0,34.0,-100.00,SE,130,11.0,17.0,27,0.00,,,0.00,1087.000000,,2013-04-30 19:32:00,
2013-04-30 12:42:00,70.0,34.0,-100.00,SE,130,11.0,17.0,27,0.00,,,0.00,1087.000000,,2013-04-30 19:42:00,
2013-04-30 12:52:00,70.0,34.0,-100.00,SE,130,11.0,17.0,27,0.00,,,0.00,1087.000000,,2013-04-30 19:52:00,
2013-04-30 13:01:00,70.0,34.0,-100.00,SE,130,11.0,17.0,27,0.00,,,0.00,1087.000000,,2013-04-30 20:01:00,
2013-04-30 13:32:00,71.0,38.0,-100.00,SE,131,11.0,19.0,30,0.00,,,0.00,1143.000000,,2013-04-30 20:32:00,
2013-04-30 13:42:00,71.0,38.0,-100.00,SE,131,11.0,19.0,30,0.00,,,0.00,1143.000000,,2013-04-30 20:42:00,
2013-04-30 13:52:00,71.0,38.0,-100.00,SE,131,11.0,19.0,30,0.00,,,0.00,1143.000000,,2013-04-30 20:52:00,
2013-04-30 14:01:00,71.0,38.0,-100.00,SE,131,11.0,19.0,30,0.00,,,0.00,1143.000000,,2013-04-30 21:01:00,
2013-04-30 14:02:00,71.0,42.0,-100.00,SSE,152,12.0,18.0,35,0.00,,,0.00,1129.000000,,2013-04-30 21:02:00,
2013-04-30 14:32:00,71.0,42.0,-100.00,SSE,152,12.0,18.0,35,0.00,,,0.00,1129.000000,,2013-04-30 21:32:00,
2013-04-30 14:42:00,71.0,42.0,-100.00,SSE,152,12.0,18.0,35,0.00,,,0.00,1129.000000,,2013-04-30 21:42:00,
2013-04-30 14:53:00,71.0,42.0,-100.00,SSE,152,12.0,18.0,35,0.00,,,0.00,1129.000000,,2013-04-30 21:53:00,
2013-04-30 15:02:00,70.0,40.0,-100.00,SE,140,10.0,18.0,34,0.00,,,0.00,1051.000000,,2013-04-30 22:02:00,
2013-04-30 15:23:00,70.0,40.0,-100.00,SE,140,10.0,18.0,34,0.00,,,0.00,1051.000000,,2013-04-30 22:23:00,
2013-04-30 15:33:00,70.0,40.0,-100.00,SE,140,10.0,18.0,34,0.00,,,0.00,1051.000000,,2013-04-30 22:33:00,
2013-04-30 15:42:00,70.0,40.0,-100.00,SE,140,10.0,18.0,34,0.00,,,0.00,1051.000000,,2013-04-30 22:42:00,
2013-04-30 15:53:00,70.0,40.0,-100.00,SE,140,10.0,18.0,34,0.00,,,0.00,1051.000000,,2013-04-30 22:53:00,
2013-04-30 16:22:00,69.0,42.0,-100.00,SE,131,11.0,19.0,38,0.00,,,0.00,934.000000,,2013-04-30 23:22:00,
2013-04-30 16:32:00,69.0,42.0,-100.00,SE,131,11.0,19.0,38,0.00,,,0.00,934.000000,,2013-04-30 23:32:00,
2013-04-30 16:42:00,69.0,42.0,-100.00,SE,131,11.0,19.0,38,0.00,,,0.00,934.000000,,2013-04-30 23:42:00,
2013-04-30 16:52:00,69.0,42.0,-100.00,SE,131,11.0,19.0,38,0.00,,,0.00,934.000000,,2013-04-30 23:52:00,
2013-04-30 17:01:00,69.0,42.0,-100.00,SE,131,11.0,19.0,38,0.00,,,0.00,934.000000,,2013-05-01 00:01:00,
2013-04-30 17:22:00,64.0,43.0,-100.00,SE,146,12.0,20.0,47,0.00,,,0.00,729.000000,,2013-05-01 00:22:00,
2013-04-30 17:32:00,64.0,43.0,-100.00,SE,146,12.0,20.0,47,0.00,,,0.00,729.000000,,2013-05-01 00:32:00,
2013-04-30 17:42:00,64.0,43.0,-100.00,SE,146,12.0,20.0,47,0.00,,,0.00,729.000000,,2013-05-01 00:42:00,
2013-04-30 17:52:00,64.0,43.0,-100.00,SE,146,12.0,20.0,47,0.00,,,0.00,729.000000,,2013-05-01 00:52:00,
2013-04-30 18:01:00,64.0,43.0,-100.00,SE,146,12.0,20.0,47,0.00,,,0.00,729.000000,,2013-05-01 01:01:00,
2013-04-30 18:32:00,62.0,46.0,-100.00,SE,145,13.0,22.0,55,0.00,,,-99.99,485.000000,,2013-05-01 01:32:00,
2013-04-30 18:42:00,62.0,46.0,-100.00,SE,145,13.0,22.0,55,0.00,,,-99.99,485.000000,,2013-05-01 01:42:00,
2013-04-30 18:52:00,62.0,46.0,-100.00,SE,145,13.0,22.0,55,0.00,,,-99.99,485.000000,,2013-05-01 01:52:00,
2013-04-30 19:01:00,62.0,46.0,-100.00,SE,145,13.0,22.0,55,0.00,,,-99.99,485.000000,,2013-05-01 02:01:00,
2013-04-30 19:22:00,58.0,46.0,-100.00,SE,137,11.0,22.0,65,0.00,,,0.00,226.000000,,2013-05-01 02:22:00,
2013-04-30 19:32:00,58.0,46.0,-100.00,SE,137,11.0,22.0,65,0.00,,,0.00,226.000000,,2013-05-01 02:32:00,
2013-04-30 19:42:00,58.0,46.0,-100.00,SE,137,11.0,22.0,65,0.00,,,0.00,226.000000,,2013-05-01 02:42:00,
2013-04-30 19:52:00,58.0,46.0,-100.00,SE,137,11.0,22.0,65,0.00,,,0.00,226.000000,,2013-05-01 02:52:00,
2013-04-30 20:01:00,58.0,46.0,-100.00,SE,137,11.0,22.0,65,0.00,,,0.00,226.000000,,2013-05-01 03:01:00,
2013-04-30 20:02:00,56.0,40.0,-100.00,SE,134,11.0,20.0,55,0.00,,,-99.99,23.000000,,2013-05-01 03:02:00,
2013-04-30 20:22:00,56.0,40.0,-100.00,SE,134,11.0,20.0,55,0.00,,,-99.99,23.000000,,2013-05-01 03:22:00,
2013-04-30 20:33:00,56.0,40.0,-100.00,SE,134,11.0,20.0,55,0.00,,,-99.99,23.000000,,2013-05-01 03:33:00,
2013-04-30 20:43:00,56.0,40.0,-100.00,SE,134,11.0,20.0,55,0.00,,,-99.99,23.000000,,2013-05-01 03:43:00,
2013-04-30 20:53:00,56.0,40.0,-100.00,SE,134,11.0,20.0,55,0.00,,,-99.99,23.000000,,2013-05-01 03:53:00,
2013-04-30 21:02:00,55.0,45.0,-100.00,SE,131,13.0,22.0,70,0.00,,,-99.99,0.000000,,2013-05-01 04:02:00,
2013-04-30 21:22:00,55.0,45.0,-100.00,SE,131,13.0,22.0,70,0.00,,,-99.99,0.000000,,2013-05-01 04:22:00,
2013-04-30 21:32:00,55.0,45.0,-100.00,SE,131,13.0,22.0,70,0.00,,,-99.99,0.000000,,2013-05-01 04:32:00,
2013-04-30 21:43:00,55.0,45.0,-100.00,SE,131,13.0,22.0,70,0.00,,,-99.99,0.000000,,2013-05-01 04:43:00,
2013-04-30 21:52:00,55.0,45.0,-100.00,SE,131,13.0,22.0,70,0.00,,,-99.99,0.000000,,2013-05-01 04:52:00,
2013-04-30 22:32:00,55.0,43.0,-100.00,South,182,6.0,19.0,63,0.00,,,-99.99,0.000000,,2013-05-01 05:32:00,
2013-04-30 22:42:00,55.0,43.0,-100.00,South,182,6.0,19.0,63,0.00,,,-99.99,0.000000,,2013-05-01 05:42:00,
2013-04-30 22:52:00,55.0,43.0,-100.00,South,182,6.0,19.0,63,0.00,,,-99.99,0.000000,,2013-05-01 05:52:00,
2013-04-30 23:01:00,55.0,43.0,-100.00,South,182,6.0,19.0,63,0.00,,,-99.99,0.000000,,2013-05-01 06:01:00,
2013-04-30 23:22:00,55.0,43.0,-100.00,SE,142,10.0,16.0,63,0.00,,,0.00,0.000000,,2013-05-01 06:22:00,
2013-04-30 23:32:00,55.0,43.0,-100.00,SE,142,10.0,16.0,63,0.00,,,0.00,0.000000,,2013-05-01 06:32:00,
2013-04-30 23:42:00,55.0,43.0,-100.00,SE,142,10.0,16.0,63,0.00,,,0.00,0.000000,,2013-05-01 06:42:00,
2013-04-30 23:52:00,55.0,43.0,-100.00,SE,142,10.0,16.0,63,0.00,,,0.00,0.000000,,2013-05-01 06:52:00,